Location: Bothwell
(41.7170°N, 112.2589°W)
Time: 01:41:28
(UTC+00:00)

S-56A Canister/Altair - All Passes

Search period start: 14 May 2026 00:00
Search period end: 24 May 2026 00:00
Orbit: 633 x 2484 km, 38.9° (Epoch: 13 May)

Date Brightness Start Highest point End Pass type
(mag) Time Alt. Az. Time Alt. Az. Time Alt. Az.
14 May - 02:55:02 10° S 02:57:50 16° SSE 03:00:32 10° ESE daylight
14 May - 04:56:21 10° WSW 05:00:36 49° SSE 05:05:23 10° E visible
14 May - 06:59:11 10° W 07:03:49 63° S 07:09:57 10° ESE visible
14 May - 09:02:14 10° W 09:07:19 36° SSW 09:14:24 10° SE visible
14 May - 11:07:32 10° WSW 11:11:06 14° SSW 11:15:16 10° S visible
15 May - 02:20:48 10° S 02:23:06 13° SSE 02:25:17 10° ESE daylight
15 May - 04:21:40 10° SW 04:25:54 43° SSE 04:30:21 10° E visible
15 May - 06:24:33 10° W 06:29:02 64° S 06:34:40 10° ESE visible
15 May - 08:27:35 10° W 08:32:25 39° SSW 08:39:03 10° SE visible
15 May - 10:32:21 10° WSW 10:36:05 15° SSW 10:40:33 10° S visible
16 May - 01:46:48 10° SSE 01:48:20 11° SSE 01:49:49 10° SE daylight
16 May - 03:46:56 10° SW 03:51:13 38° SSE 03:55:25 10° E visible
16 May - 05:49:53 10° W 05:54:16 63° S 05:59:29 10° E visible
16 May - 07:52:57 10° W 07:57:34 41° SSW 08:03:46 10° SE night (unlit)
16 May - 09:57:18 10° WSW 10:01:06 17° SSW 10:05:44 10° S visible
17 May - 03:12:09 10° SW 03:16:30 34° SSE 03:20:32 10° E visible
17 May - 05:15:10 10° WSW 05:19:32 63° S 05:24:24 10° E visible
17 May - 07:18:18 10° W 07:22:45 44° SSW 07:28:32 10° SE visible
17 May - 09:22:22 10° WSW 09:26:10 18° SSW 09:30:50 10° SSE visible
18 May - 02:37:20 10° SW 02:41:47 30° SSE 02:45:42 10° E daylight
18 May - 04:40:23 10° WSW 04:44:49 61° S 04:49:25 10° E visible
18 May - 06:43:38 10° W 06:47:59 47° SSW 06:53:22 10° ESE visible
18 May - 08:47:29 10° WSW 08:51:16 19° SSW 08:55:55 10° SSE night (unlit)
19 May - 02:02:29 10° SW 02:07:02 27° SSE 02:10:54 10° E daylight
19 May - 04:05:32 10° WSW 04:10:05 58° S 04:14:32 10° E visible
19 May - 06:08:56 10° W 06:13:14 50° SSW 06:18:17 10° ESE visible
19 May - 08:12:39 10° WSW 08:16:25 21° SSW 08:21:01 10° SSE night (unlit)
20 May - 01:27:34 10° SSW 01:32:16 25° SSE 01:36:07 10° E daylight
20 May - 03:30:36 10° WSW 03:35:22 55° S 03:39:43 10° E visible
20 May - 05:34:11 10° W 05:38:30 53° S 05:43:17 10° ESE visible
20 May - 07:37:51 10° WSW 07:41:36 23° SSW 07:46:07 10° SSE night (unlit)
21 May - 00:52:37 10° SSW 00:57:27 23° SSE 01:01:21 10° ESE daylight
21 May - 02:55:35 10° WSW 03:00:38 52° S 03:04:58 10° E daylight
21 May - 04:59:22 10° W 05:03:47 57° S 05:08:20 10° ESE visible
21 May - 07:03:03 10° W 07:06:49 25° SSW 07:11:15 10° SSE visible
22 May - 00:17:39 10° SSW 00:22:36 21° SSE 00:26:33 10° ESE daylight
22 May - 02:20:29 10° WSW 02:25:54 49° SSE 02:30:16 10° E daylight
22 May - 04:24:29 10° W 04:29:04 60° S 04:33:30 10° ESE visible
22 May - 06:28:14 10° W 06:32:04 28° SSW 06:36:25 10° SE visible
22 May - 23:42:41 10° SSW 23:47:43 20° SSE 23:51:44 10° ESE daylight
23 May - 01:45:19 10° WSW 01:51:07 46° SSE 01:55:36 10° E daylight
23 May - 03:49:29 10° W 03:54:20 62° S 03:58:43 10° ESE visible
23 May - 05:53:24 10° W 05:57:21 32° SSW 06:01:37 10° SE visible
23 May - 23:07:42 10° S 23:12:46 18° SSE 23:16:50 10° ESE daylight
